{"data":{"norad_id":47628,"intl_designator":"2021-012J","name":"STARLINK-1973","alt_names":[],"object_type":"PAYLOAD","status":"ACTIVE","operator":null,"country":"US","launch_date":"2021-02-16","launch_site_code":"AFETR","launch_vehicle":null,"mission":null,"orbit_class":"UNKNOWN","rcs_meters":null,"size_class":null,"mass_kg":null,"dimensions":null,"purposes":["comms"],"wikipedia_slug":null,"has_3d_model":false,"image_url":null,"decayed_at":null,"tle_current":{"epoch":"2026-05-25T04:09:57.864960Z","epoch_age_seconds":70432,"freshness":"FRESH","line1":"1 47628U 21012J   26145.17358640  .00010014  00000+0  33389-3 0  9999","line2":"2 47628  53.1603  69.2664 0001374  87.4654 272.6504 15.31712665291802","mean_motion":15.31712665,"eccentricity":0.0001374,"inclination_deg":53.1603,"raan_deg":69.2664,"arg_perigee_deg":87.4654,"mean_anomaly_deg":272.6504,"bstar":0.00033389,"rev_number":29180,"period_min":94.012410610968,"perigee_km":469.761211268,"apogee_km":471.64327229164,"semimajor_km":6848.8392417798,"source":"CELESTRAK","updated_at":"2026-05-25T13:38:16.560319Z"}}}